RH
24 24 26 27 21 21 23 26 19 15 13 8 4 22 39 42 55 74 87 84 97 87 57 21 19 20 22 26 23 20 26 24
27 27 29 22 22 25 25 24 24 22 20 18 14 5 14 37 44 66 77 95 87 96 77 43 21 20 21 24 24 25 24 23
29 31 24 22 23 26 25 23 22 21 24 25 22 16 8 9 37 46 80 100 100 88 84 75 36 22 22 24 24 26 25 26
32 30 23 23 27 29 30 28 28 29 34 31 29 25 18 12 9 39 47 89 100 87 99 92 47 31 32 24 25 26 28 28
32 28 26 32 34 35 37 36 38 35 37 37 32 29 26 21 20 11 37 48 99 100 99 76 81 58 26 26 26 26 30 32
32 32 35 40 39 40 44 45 43 30 17 11 11 15 24 27 27 23 11 37 75 99 99 92 84 73 43 37 26 27 30 33
36 41 43 43 46 49 50 53 50 41 35 28 26 12 9 16 28 32 23 12 40 93 100 100 99 97 78 41 34 27 31 34
41 43 45 50 54 58 61 61 61 60 60 60 54 26 30 40 34 30 33 18 23 48 100 100 97 86 99 80 47 35 36 36
46 48 56 62 68 72 76 75 69 55 55 72 83 76 44 27 26 18 12 9 25 37 67 100 100 100 92 88 84 54 54 50
49 63 70 76 76 85 91 91 83 92 83 81 95 100 100 96 76 20 12 12 98 54 48 96 100 100 95 86 100 85 64 62
61 75 80 87 88 91 94 100 100 100 100 98 100 99 98 100 85 80 72 78 72 71 66 74 97 79 81 84 89 91 86 85
74 88 90 90 92 92 96 100 100 100 93 94 100 100 100 91 93 98 98 98 88 66 70 97 95 98 99 93 100 100 88 74
87 93 92 89 95 95 94 100 99 100 96 97 98 97 100 97 99 99 99 99 64 61 96 94 97 97 97 93 96 98 97 92
90 92 93 81 82 75 89 97 97 97 96 96 94 98 98 98 99 99 100 87 66 58 92 100 100 100 98 88 100 100 100 98
82 80 85 81 75 64 32 35 58 89 95 95 97 97 98 99 98 100 100 97 90 97 100 99 100 99 95 100 100 100 100 100
54 48 40 34 35 29 54 28 17 35 51 80 75 65 95 96 98 99 99 99 100 100 100 100 99 98 97 99 98 98 99 96
46 32 20 14 12 11 9 8 7 7 8 11 27 33 18 56 46 35 31 39 38 47 58 70 59 66 72 70 76 76 72 66
32 17 14 11 10 8 7 6 5 5 5 5 5 5 5 6 6 6 6 7 8 10 12 13 13 12 12 12 11 10 10 10
19 15 13 10 8 7 6 6 6 6 6 6 7 7 7 7 7 6 6 6 5 4 4 4 4 4 4 4 4 4 4 4
Wind_Speed
30 32 36 43 48 53 54 50 43 44 45 46 51 62 59 54 56 54 51 51 52 45 42 41 40 39 37 34 31 28 25 24
32 34 37 46 51 50 51 52 52 51 50 55 53 48 63 64 56 60 57 57 60 44 45 41 41 42 39 36 35 33 30 28
34 37 44 52 51 50 51 52 52 54 54 52 59 57 51 63 64 60 61 65 53 46 61 47 44 43 42 41 39 36 33 31
36 40 47 51 48 49 47 47 46 45 40 43 50 56 58 52 59 68 61 57 56 61 45 43 45 46 48 43 41 40 36 33
38 44 47 46 45 44 43 45 41 38 36 36 39 46 54 61 58 58 71 64 53 55 53 56 56 50 53 50 47 44 40 37
39 44 45 45 43 42 40 39 34 33 36 38 39 43 48 53 56 55 59 67 65 51 57 62 59 58 57 55 51 49 44 41
39 40 42 42 39 39 36 34 33 35 37 40 43 42 44 50 52 56 49 59 66 61 58 61 56 70 63 60 53 50 46 43
36 38 38 37 38 36 36 34 25 23 28 32 37 36 36 39 43 40 45 50 62 71 56 55 60 41 65 59 55 51 47 45
34 35 34 37 39 37 36 34 31 27 29 35 33 29 29 33 37 34 34 45 50 62 66 46 42 56 60 60 47 47 47 45
29 29 32 34 35 35 35 37 35 37 42 40 24 18 20 21 17 16 26 34 36 47 57 43 42 56 30 43 39 42 48 47
23 25 28 29 30 31 30 31 34 37 39 31 17 15 15 13 7 10 15 29 26 42 45 54 31 41 38 38 42 43 43 41
20 22 23 25 27 28 30 31 32 33 26 23 20 14 18 14 13 10 8 19 20 26 37 31 26 27 30 41 28 34 34 49
16 18 18 21 27 27 30 34 36 33 28 19 5 6 15 22 28 22 25 17 26 24 11 14 16 14 17 19 34 51 44 55
12 16 16 20 26 32 35 35 34 35 34 27 20 30 32 28 34 37 21 19 13 17 9 9 21 31 23 29 15 12 26 20
9 12 14 19 23 25 26 28 35 38 38 36 38 36 31 29 27 31 22 16 16 14 16 12 14 12 12 21 21 13 13 19
5 6 10 13 15 18 22 25 26 29 33 33 40 41 42 39 31 28 25 23 15 10 9 6 4 6 10 12 13 15 17 18
3 4 7 8 10 13 16 19 21 23 24 24 29 28 28 32 29 30 29 29 28 24 22 19 15 12 10 7 2 3 5 5
2 2 4 6 8 11 13 16 18 19 20 23 24 23 24 25 23 24 23 23 23 20 19 17 13 12 12 10 8 6 6 6
4 2 2 5 7 10 12 13 14 15 16 18 19 19 20 20 19 19 19 19 19 18 16 14 13 11 10 9 8 9 10 11
Wind_Direction
285 289 294 302 304 301 300 295 286 280 276 274 259 243 241 243 238 234 235 234 234 238 238 234 232 230 228 227 227 222 221 223
279 284 292 299 306 300 296 291 290 283 278 272 265 259 244 242 241 235 233 238 244 221 230 234 230 229 227 226 226 222 218 221
280 291 301 308 309 305 301 295 290 287 281 270 262 257 253 244 241 239 236 235 247 238 230 224 229 228 226 223 225 223 221 220
287 292 304 311 309 306 301 294 291 284 281 273 262 257 255 250 242 241 240 237 237 241 241 221 228 232 229 223 224 224 224 225
298 309 316 313 312 308 306 301 292 279 279 277 271 263 255 253 249 241 240 241 239 229 224 215 227 233 230 224 221 224 225 226
315 322 320 318 315 311 311 306 294 281 278 276 270 264 262 257 248 243 239 238 237 233 233 229 225 226 233 227 222 220 224 227
326 325 321 319 318 319 316 318 301 280 275 272 273 269 270 263 260 249 243 237 235 241 227 227 234 241 224 228 223 224 224 228
328 326 322 326 329 327 330 325 311 290 285 275 271 268 264 267 261 255 248 244 230 232 232 237 232 250 225 227 222 223 225 230
333 326 335 340 337 338 338 340 340 323 314 318 278 264 259 259 263 260 250 242 234 231 238 237 258 249 261 217 227 224 230 233
332 337 346 343 343 348 352 353 345 335 333 325 305 266 274 275 264 262 234 244 241 230 238 238 263 263 265 223 230 226 223 230
342 349 352 348 359 0 2 0 352 347 334 319 317 272 272 251 251 264 229 238 229 227 233 241 280 260 256 244 223 224 228 230
356 6 1 6 14 15 20 18 15 8 346 328 301 267 254 220 196 144 199 201 214 232 239 240 271 249 221 222 236 221 227 233
18 25 16 28 34 33 35 35 34 31 26 19 4 218 215 205 151 162 166 199 208 224 221 226 249 250 286 260 263 239 254 248
27 33 30 36 42 44 42 43 44 48 53 49 47 82 93 104 124 123 157 184 205 240 191 192 216 216 234 239 204 225 216 271
42 37 39 43 47 43 40 42 41 44 51 55 59 54 68 91 80 107 139 144 169 142 152 176 186 215 229 232 247 269 261 263
32 18 32 25 29 40 44 46 47 50 50 48 52 45 49 55 72 79 80 101 113 116 119 131 154 226 231 241 254 268 273 272
40 33 40 26 25 41 40 45 54 58 59 59 62 61 60 62 64 70 75 79 82 86 93 88 84 95 87 92 49 321 296 295
114 75 50 41 35 44 47 47 54 59 59 62 66 61 61 62 62 71 74 73 77 76 78 81 79 68 72 63 51 37 15 355
165 131 53 57 53 47 44 48 49 50 53 55 59 60 60 60 59 60 63 65 67 69 65 62 57 47 38 26 9 349 340 332